When you browse on this site, cookies collect data to enhance your experience and personalize the content and advertising you see.
Visit our Privacy Policy to learn more. By continuing to use the site, you agree to this use of cookies and data.
  • In United Kingdom
  • List of Countries
  • For 7 days
  • Water Temperature
  • Satellite Maps
  • Weather Map
  • Weather Widgets
  • user-avatar
    Login

    Hourly Weather Berat

    Today, 14 December, Friday

    Time Temperature Precipitation Wind Pressure Humidity
    00:00 +5°C° 0.2 mm 4 mps 743 mmHg 84%
    01:00 +6°C° 0 mm 5 mps 743 mmHg 85%
    02:00 +6°C° 0.3 mm 5 mps 743 mmHg 86%
    03:00 +7°C° 0.3 mm 5 mps 743 mmHg 88%
    04:00 +7°C° 0.3 mm 4 mps 743 mmHg 89%
    05:00 +7°C° 0.3 mm 4 mps 743 mmHg 90%
    06:00 +7°C° 0.3 mm 4 mps 742 mmHg 90%
    07:00 +8°C° 0 mm 4 mps 742 mmHg 90%
    08:00 +10°C° 0.1 mm 4 mps 742 mmHg 87%
    09:00 +10°C° 0.1 mm 5 mps 743 mmHg 83%
    10:00 +12°C° 0.1 mm 5 mps 743 mmHg 80%
    11:00 +13°C° 0.1 mm 5 mps 742 mmHg 79%
    12:00 +13°C° 0.1 mm 5 mps 742 mmHg 78%
    13:00 +14°C° 0.1 mm 5 mps 742 mmHg 77%
    14:00 +13°C° 0.2 mm 5 mps 742 mmHg 80%
    15:00 +13°C° 0.2 mm 5 mps 742 mmHg 82%
    16:00 +12°C° 0.2 mm 4 mps 742 mmHg 85%
    17:00 +11°C° 0.1 mm 4 mps 742 mmHg 85%
    18:00 +11°C° 0.1 mm 4 mps 742 mmHg 86%
    19:00 +10°C° 0.1 mm 4 mps 742 mmHg 87%
    20:00 +10°C° 0 mm 4 mps 742 mmHg 87%
    21:00 +10°C° 0 mm 4 mps 742 mmHg 86%
    22:00 +8°C° 0 mm 4 mps 742 mmHg 85%
    23:00 +8°C° 0 mm 4 mps 742 mmHg 84%

    Tomorrow, 15 December, Saturday

    Time Temperature Precipitation Wind Pressure Humidity
    00:00 +8°C° 0 mm 4 mps 742 mmHg 83%
    01:00 +8°C° 0 mm 4 mps 742 mmHg 82%
    02:00 +8°C° 0.1 mm 4 mps 741 mmHg 82%
    03:00 +8°C° 0.1 mm 4 mps 741 mmHg 82%
    04:00 +8°C° 0.1 mm 4 mps 741 mmHg 82%
    05:00 +8°C° 0.1 mm 4 mps 741 mmHg 83%
    06:00 +10°C° 0.1 mm 4 mps 741 mmHg 84%
    07:00 +10°C° 0.1 mm 4 mps 741 mmHg 84%
    08:00 +10°C° 0.3 mm 4 mps 741 mmHg 83%
    09:00 +11°C° 0.3 mm 4 mps 741 mmHg 81%
    10:00 +12°C° 0.3 mm 4 mps 741 mmHg 80%
    11:00 +12°C° 0.2 mm 4 mps 741 mmHg 76%
    12:00 +13°C° 0.2 mm 4 mps 741 mmHg 73%
    13:00 +14°C° 0.2 mm 4 mps 741 mmHg 70%
    14:00 +13°C° 0.5 mm 4 mps 741 mmHg 74%
    15:00 +12°C° 0.5 mm 3 mps 740 mmHg 78%
    16:00 +12°C° 0.5 mm 3 mps 740 mmHg 82%
    17:00 +11°C° 0.9 mm 3 mps 741 mmHg 83%
    18:00 +11°C° 0.9 mm 3 mps 741 mmHg 84%
    19:00 +12°C° 0.9 mm 2 mps 741 mmHg 85%
    20:00 +10°C° 1.3 mm 2 mps 741 mmHg 86%
    21:00 +10°C° 1.3 mm 2 mps 741 mmHg 87%
    22:00 +10°C° 1.3 mm 2 mps 741 mmHg 88%
    23:00 +10°C° 1.3 mm 3 mps 741 mmHg 90%

    Day after tomorrow, 16 December, Sunday

    Time Temperature Precipitation Wind Pressure Humidity
    00:00 +9°C° 1.3 mm 3 mps 741 mmHg 92%
    01:00 +9°C° 1.3 mm 3 mps 741 mmHg 95%
    02:00 +9°C° 1.4 mm 3 mps 741 mmHg 95%
    03:00 +9°C° 1.4 mm 3 mps 741 mmHg 95%
    04:00 +9°C° 1.4 mm 3 mps 741 mmHg 95%
    05:00 +8°C° 0.6 mm 3 mps 742 mmHg 94%
    06:00 +8°C° 0.6 mm 3 mps 742 mmHg 93%
    07:00 +8°C° 0.6 mm 3 mps 742 mmHg 93%
    08:00 +8°C° 0.2 mm 3 mps 743 mmHg 90%
    09:00 +8°C° 0.2 mm 3 mps 743 mmHg 87%
    10:00 +9°C° 0.2 mm 3 mps 743 mmHg 85%
    11:00 +9°C° 0.1 mm 3 mps 743 mmHg 81%
    12:00 +9°C° 0.1 mm 3 mps 743 mmHg 78%
    13:00 +9°C° 0.1 mm 3 mps 743 mmHg 75%
    14:00 +9°C° 0 mm 3 mps 744 mmHg 77%
    15:00 +9°C° 0 mm 3 mps 744 mmHg 78%
    16:00 +8°C° 0 mm 3 mps 744 mmHg 80%
    17:00 +8°C° 0 mm 3 mps 745 mmHg 82%
    18:00 +7°C° 0 mm 2 mps 746 mmHg 84%
    19:00 +7°C° 0 mm 2 mps 746 mmHg 86%
    20:00 +6°C° 0 mm 2 mps 747 mmHg 86%
    21:00 +6°C° 0 mm 2 mps 747 mmHg 86%
    22:00 +6°C° 0 mm 2 mps 747 mmHg 86%
    23:00 +6°C° 0 mm 2 mps 747 mmHg 85%

    17 December, Monday

    Time Temperature Precipitation Wind Pressure Humidity
    00:00 +6°C° 0 mm 2 mps 747 mmHg 84%
    01:00 +6°C° 0 mm 2 mps 747 mmHg 83%
    02:00 +7°C° 0 mm 1 mps 746 mmHg 82%
    03:00 +7°C° 0 mm 1 mps 746 mmHg 81%
    04:00 +8°C° 0 mm 1 mps 746 mmHg 79%
    05:00 +8°C° 0 mm 1 mps 746 mmHg 79%
    06:00 +8°C° 0 mm 1 mps 746 mmHg 78%
    07:00 +9°C° 0 mm 1 mps 747 mmHg 77%
    08:00 +10°C° 0 mm 1 mps 747 mmHg 76%
    09:00 +10°C° 0 mm 1 mps 747 mmHg 74%
    10:00 +11°C° 0 mm 1 mps 747 mmHg 72%
    11:00 +12°C° 0 mm 2 mps 746 mmHg 72%
    12:00 +12°C° 0 mm 2 mps 746 mmHg 73%
    13:00 +12°C° 0 mm 2 mps 746 mmHg 73%
    14:00 +12°C° 0 mm 2 mps 745 mmHg 75%
    15:00 +10°C° 0 mm 2 mps 745 mmHg 78%
    16:00 +10°C° 0 mm 2 mps 745 mmHg 80%
    17:00 +9°C° 0.1 mm 3 mps 745 mmHg 81%
    18:00 +9°C° 0.1 mm 3 mps 745 mmHg 82%
    19:00 +9°C° 0.1 mm 3 mps 745 mmHg 83%
    20:00 +8°C° 0.3 mm 4 mps 745 mmHg 84%
    21:00 +8°C° 0.3 mm 4 mps 745 mmHg 84%
    22:00 +8°C° 0.3 mm 4 mps 745 mmHg 85%
    23:00 +8°C° 1.7 mm 4 mps 744 mmHg 86%

    18 December, Tuesday

    Time Temperature Precipitation Wind Pressure Humidity
    00:00 +8°C° 1.7 mm 4 mps 744 mmHg 86%
    01:00 +8°C° 1.7 mm 5 mps 743 mmHg 87%
    02:00 +8°C° 1.8 mm 4 mps 743 mmHg 87%
    03:00 +8°C° 1.8 mm 4 mps 743 mmHg 87%
    04:00 +8°C° 1.8 mm 4 mps 743 mmHg 87%
    05:00 +9°C° 2.4 mm 3 mps 743 mmHg 89%
    06:00 +9°C° 2.4 mm 3 mps 743 mmHg 90%
    07:00 +8°C° 2.4 mm 2 mps 743 mmHg 91%
    08:00 +9°C° 0.7 mm 2 mps 744 mmHg 89%
    09:00 +9°C° 0.7 mm 2 mps 744 mmHg 87%
    10:00 +10°C° 0.7 mm 2 mps 744 mmHg 85%
    11:00 +10°C° 0.5 mm 2 mps 744 mmHg 84%
    12:00 +10°C° 0.5 mm 2 mps 744 mmHg 83%
    13:00 +10°C° 0.5 mm 3 mps 744 mmHg 82%
    14:00 +10°C° 0.1 mm 3 mps 745 mmHg 83%
    15:00 +10°C° 0.1 mm 3 mps 745 mmHg 84%
    16:00 +9°C° 0.1 mm 3 mps 746 mmHg 85%
    17:00 +9°C° 0 mm 3 mps 746 mmHg 86%
    18:00 +8°C° 0 mm 3 mps 747 mmHg 86%
    19:00 +8°C° 0 mm 3 mps 747 mmHg 86%
    20:00 +7°C° 0 mm 3 mps 747 mmHg 85%
    21:00 +7°C° 0 mm 3 mps 748 mmHg 85%
    22:00 +7°C° 0 mm 3 mps 748 mmHg 85%
    23:00 +5°C° 0 mm 3 mps 748 mmHg 84%

    19 December, Wednesday

    Time Temperature Precipitation Wind Pressure Humidity
    00:00 +5°C° 0 mm 3 mps 748 mmHg 84%
    01:00 +5°C° 0 mm 3 mps 749 mmHg 84%
    02:00 +5°C° 0 mm 3 mps 749 mmHg 83%
    03:00 +6°C° 0 mm 2 mps 749 mmHg 83%
    04:00 +6°C° 0 mm 2 mps 749 mmHg 82%
    05:00 +6°C° 0 mm 2 mps 749 mmHg 82%
    06:00 +5°C° 0 mm 2 mps 749 mmHg 82%
    07:00 +5°C° 0 mm 2 mps 749 mmHg 81%
    08:00 +7°C° 0 mm 2 mps 750 mmHg 77%
    09:00 +9°C° 0 mm 2 mps 750 mmHg 72%
    10:00 +10°C° 0 mm 2 mps 750 mmHg 68%
    11:00 +12°C° 0 mm 2 mps 749 mmHg 66%
    12:00 +13°C° 0 mm 2 mps 749 mmHg 64%
    13:00 +14°C° 0 mm 2 mps 749 mmHg 62%
    14:00 +12°C° 0 mm 2 mps 749 mmHg 67%
    15:00 +11°C° 0 mm 1 mps 749 mmHg 72%
    16:00 +10°C° 0 mm 1 mps 749 mmHg 76%
    17:00 +10°C° 0 mm 1 mps 749 mmHg 77%
    18:00 +9°C° 0 mm 1 mps 749 mmHg 78%
    19:00 +9°C° 0 mm 1 mps 749 mmHg 80%
    20:00 +9°C° 0 mm 1 mps 749 mmHg 79%
    21:00 +9°C° 0 mm 1 mps 750 mmHg 79%
    22:00 +8°C° 0 mm 1 mps 750 mmHg 79%
    23:00 +8°C° 0 mm 1 mps 750 mmHg 79%
    Show more